Time,TemperatureF,DewpointF,PressureIn,WindDirection,WindDirectionDegrees,WindSpeedMPH,WindSpeedGustMPH,Humidity,HourlyPrecipIn,Conditions,Clouds,dailyrainin,SoftwareType,DateUTC
2013-05-02 00:00:00,65.5,44.2,29.03,SE,135,0.0,4.9,46,0.00,,---,0.00,VWS V14.01,2013-05-02 04:00:00,
2013-05-02 00:01:00,65.5,44.2,29.03,SE,135,0.0,0.0,46,0.00,,---,0.00,VWS V14.01,2013-05-02 04:01:00,
2013-05-02 00:02:00,65.5,44.2,29.03,SE,135,3.1,3.1,46,0.00,,---,0.00,VWS V14.01,2013-05-02 04:02:00,
2013-05-02 00:03:00,65.5,44.2,29.03,SE,135,0.0,3.1,46,0.00,,---,0.00,VWS V14.01,2013-05-02 04:03:00,
2013-05-02 00:04:00,65.5,44.2,29.03,SE,135,0.0,2.7,46,0.00,,---,0.00,VWS V14.01,2013-05-02 04:04:00,
2013-05-02 00:05:00,65.5,44.7,29.03,SE,135,0.0,3.1,47,0.00,,---,0.00,VWS V14.01,2013-05-02 04:05:00,
2013-05-02 00:06:00,65.5,44.7,29.03,SE,135,4.0,4.0,47,0.00,,---,0.00,VWS V14.01,2013-05-02 04:06:00,
2013-05-02 00:07:00,65.5,44.7,29.03,SE,124,3.1,4.9,47,0.00,,---,0.00,VWS V14.01,2013-05-02 04:07:00,
2013-05-02 00:08:00,65.5,44.7,29.03,SE,124,0.0,3.1,47,0.00,,---,0.00,VWS V14.01,2013-05-02 04:08:00,
2013-05-02 00:09:00,65.5,44.7,29.03,SE,145,3.1,5.4,47,0.00,,---,0.00,VWS V14.01,2013-05-02 04:09:00,
2013-05-02 00:10:00,65.5,44.7,29.03,SE,144,4.5,4.9,47,0.00,,---,0.00,VWS V14.01,2013-05-02 04:10:00,
2013-05-02 00:11:00,65.5,44.2,29.03,SE,144,4.0,4.5,46,0.00,,---,0.00,VWS V14.01,2013-05-02 04:11:00,
2013-05-02 00:12:00,65.5,44.2,29.03,SE,144,2.7,4.0,46,0.00,,---,0.00,VWS V14.01,2013-05-02 04:12:00,
2013-05-02 00:13:00,65.5,44.2,29.03,ESE,119,3.6,4.5,46,0.00,,---,0.00,VWS V14.01,2013-05-02 04:13:00,
2013-05-02 00:14:00,65.5,44.2,29.03,ESE,119,0.0,3.6,46,0.00,,---,0.00,VWS V14.01,2013-05-02 04:14:00,
2013-05-02 00:15:00,65.5,44.2,29.03,ESE,119,3.6,4.0,46,0.00,,---,0.00,VWS V14.01,2013-05-02 04:15:00,
2013-05-02 00:16:00,65.5,44.2,29.03,ESE,117,5.8,5.8,46,0.00,,---,0.00,VWS V14.01,2013-05-02 04:16:00,
2013-05-02 00:17:00,65.5,44.2,29.03,ESE,116,4.0,5.8,46,0.00,,---,0.00,VWS V14.01,2013-05-02 04:17:00,
2013-05-02 00:18:00,65.5,44.2,29.03,ESE,110,5.4,5.8,46,0.00,,---,0.00,VWS V14.01,2013-05-02 04:18:00,
2013-05-02 00:19:00,65.5,44.2,29.03,ESE,111,2.7,5.4,46,0.00,,---,0.00,VWS V14.01,2013-05-02 04:19:00,
2013-05-02 00:20:00,65.5,44.2,29.03,ESE,111,2.7,3.6,46,0.00,,---,0.00,VWS V14.01,2013-05-02 04:20:00,
2013-05-02 00:21:00,65.5,44.2,29.03,ESE,116,4.0,4.9,46,0.00,,---,0.00,VWS V14.01,2013-05-02 04:21:00,
2013-05-02 00:22:00,65.5,44.2,29.03,ESE,123,4.0,5.8,46,0.00,,---,0.00,VWS V14.01,2013-05-02 04:22:00,
2013-05-02 00:23:00,65.5,44.2,29.03,ESE,122,0.0,4.5,46,0.00,,---,0.00,VWS V14.01,2013-05-02 04:23:00,
2013-05-02 00:24:00,65.5,44.2,29.03,ESE,122,3.6,3.6,46,0.00,,---,0.00,VWS V14.01,2013-05-02 04:24:00,
2013-05-02 00:25:00,65.3,44.0,29.03,ESE,122,3.1,4.0,46,0.00,,---,0.00,VWS V14.01,2013-05-02 04:25:00,
2013-05-02 00:26:00,65.3,44.0,29.03,ESE,109,0.0,4.9,46,0.00,,---,0.00,VWS V14.01,2013-05-02 04:26:00,
2013-05-02 00:27:00,65.3,44.6,29.03,ESE,109,0.0,0.0,47,0.00,,---,0.00,VWS V14.01,2013-05-02 04:27:00,
2013-05-02 00:28:00,65.3,44.6,29.03,SE,131,3.6,5.4,47,0.00,,---,0.00,VWS V14.01,2013-05-02 04:28:00,
2013-05-02 00:29:00,65.3,44.6,29.03,SE,131,2.7,3.6,47,0.00,,---,0.00,VWS V14.01,2013-05-02 04:29:00,
2013-05-02 00:30:00,65.3,44.6,29.03,SE,131,0.0,2.7,47,0.00,,---,0.00,VWS V14.01,2013-05-02 04:30:00,
2013-05-02 00:31:00,65.1,44.4,29.03,SE,131,0.0,3.1,47,0.00,,---,0.00,VWS V14.01,2013-05-02 04:31:00,
2013-05-02 00:32:00,65.1,44.4,29.03,SE,131,2.7,3.6,47,0.00,,---,0.00,VWS V14.01,2013-05-02 04:32:00,
2013-05-02 00:33:00,65.1,44.4,29.03,SE,131,3.1,3.1,47,0.00,,---,0.00,VWS V14.01,2013-05-02 04:33:00,
2013-05-02 00:34:00,65.1,44.4,29.03,SE,131,3.6,3.6,47,0.00,,---,0.00,VWS V14.01,2013-05-02 04:34:00,
2013-05-02 00:35:00,65.1,44.4,29.03,SE,131,3.1,4.5,47,0.00,,---,0.00,VWS V14.01,2013-05-02 04:35:00,
2013-05-02 00:36:00,65.1,45.0,29.03,SE,131,0.0,3.1,48,0.00,,---,0.00,VWS V14.01,2013-05-02 04:36:00,
2013-05-02 00:37:00,65.1,45.0,29.03,SE,131,0.0,0.0,48,0.00,,---,0.00,VWS V14.01,2013-05-02 04:37:00,
2013-05-02 00:38:00,64.9,44.8,29.03,SE,131,4.5,4.5,48,0.00,,---,0.00,VWS V14.01,2013-05-02 04:38:00,
2013-05-02 00:39:00,64.9,44.8,29.03,SE,130,0.0,4.9,48,0.00,,---,0.00,VWS V14.01,2013-05-02 04:39:00,
2013-05-02 00:40:00,64.9,44.8,29.03,SSE,151,4.9,4.9,48,0.00,,---,0.00,VWS V14.01,2013-05-02 04:40:00,
2013-05-02 00:41:00,64.9,44.8,29.03,SSE,166,0.0,5.8,48,0.00,,---,0.00,VWS V14.01,2013-05-02 04:41:00,
2013-05-02 00:42:00,64.9,44.8,29.03,SSE,166,0.0,3.1,48,0.00,,---,0.00,VWS V14.01,2013-05-02 04:42:00,
2013-05-02 00:43:00,64.9,45.3,29.03,SSE,166,0.0,0.0,49,0.00,,---,0.00,VWS V14.01,2013-05-02 04:43:00,
2013-05-02 00:44:00,64.9,45.3,29.03,SE,140,4.9,4.9,49,0.00,,---,0.00,VWS V14.01,2013-05-02 04:44:00,
2013-05-02 00:45:00,64.9,45.3,29.03,SE,132,4.5,5.4,49,0.00,,---,0.00,VWS V14.01,2013-05-02 04:45:00,
2013-05-02 00:46:00,64.9,45.3,29.03,SE,144,4.9,4.9,49,0.00,,---,0.00,VWS V14.01,2013-05-02 04:46:00,
2013-05-02 00:47:00,64.9,45.3,29.03,SE,146,0.0,4.9,49,0.00,,---,0.00,VWS V14.01,2013-05-02 04:47:00,
2013-05-02 00:48:00,64.9,45.3,29.03,SE,135,4.5,6.3,49,0.00,,---,0.00,VWS V14.01,2013-05-02 04:48:00,
2013-05-02 00:49:00,64.9,45.3,29.03,SSE,149,3.1,4.9,49,0.00,,---,0.00,VWS V14.01,2013-05-02 04:49:00,
2013-05-02 00:50:00,64.9,45.3,29.03,SE,140,5.4,5.4,49,0.00,,---,0.00,VWS V14.01,2013-05-02 04:50:00,
2013-05-02 00:51:00,64.9,45.3,29.03,SE,140,3.1,5.4,49,0.00,,---,0.00,VWS V14.01,2013-05-02 04:51:00,
2013-05-02 00:52:00,64.9,45.3,29.03,SE,136,3.6,5.4,49,0.00,,---,0.00,VWS V14.01,2013-05-02 04:52:00,
2013-05-02 00:53:00,64.9,45.3,29.03,SE,136,2.7,3.6,49,0.00,,---,0.00,VWS V14.01,2013-05-02 04:53:00,
2013-05-02 00:54:00,64.9,45.3,29.03,SSE,160,6.7,6.7,49,0.00,,---,0.00,VWS V14.01,2013-05-02 04:54:00,
2013-05-02 00:55:00,64.9,45.3,29.03,SSE,150,3.1,6.7,49,0.00,,---,0.00,VWS V14.01,2013-05-02 04:55:00,
2013-05-02 00:56:00,64.9,45.3,29.03,ESE,119,4.9,6.7,49,0.00,,---,0.00,VWS V14.01,2013-05-02 04:56:00,
2013-05-02 00:57:00,64.9,45.3,29.03,SE,131,3.6,4.9,49,0.00,,---,0.00,VWS V14.01,2013-05-02 04:57:00,
2013-05-02 00:58:00,64.9,45.3,29.03,SSE,149,4.9,5.4,49,0.00,,---,0.00,VWS V14.01,2013-05-02 04:58:00,
2013-05-02 00:59:00,64.9,45.3,29.03,SSE,148,3.6,4.9,49,0.00,,---,0.00,VWS V14.01,2013-05-02 04:59:00,
2013-05-02 01:00:00,64.9,45.3,29.03,SSE,163,3.6,4.9,49,0.00,,---,0.00,VWS V14.01,2013-05-02 05:00:00,
2013-05-02 01:01:00,64.9,45.3,29.03,SSE,163,0.0,3.6,49,0.00,,---,0.00,VWS V14.01,2013-05-02 05:01:00,
2013-05-02 01:02:00,64.9,45.3,29.03,SSE,163,0.0,0.0,49,0.00,,---,0.00,VWS V14.01,2013-05-02 05:02:00,
2013-05-02 01:03:00,64.8,45.2,29.03,SSE,163,0.0,0.0,49,0.00,,---,0.00,VWS V14.01,2013-05-02 05:03:00,
2013-05-02 01:04:00,64.8,45.2,29.03,SSE,163,0.0,0.0,49,0.00,,---,0.00,VWS V14.01,2013-05-02 05:04:00,
2013-05-02 01:05:00,64.8,45.7,29.03,ESE,121,3.6,4.0,50,0.00,,---,0.00,VWS V14.01,2013-05-02 05:05:00,
2013-05-02 01:06:00,64.8,45.7,29.03,SE,127,4.5,4.5,50,0.00,,---,0.00,VWS V14.01,2013-05-02 05:06:00,
2013-05-02 01:07:00,64.8,45.7,29.03,SE,131,4.0,4.9,50,0.00,,---,0.00,VWS V14.01,2013-05-02 05:07:00,
2013-05-02 01:08:00,64.8,45.7,29.03,SE,131,4.5,4.5,50,0.00,,---,0.00,VWS V14.01,2013-05-02 05:08:00,
2013-05-02 01:09:00,64.8,46.2,29.03,ESE,115,0.0,4.5,51,0.00,,---,0.00,VWS V14.01,2013-05-02 05:09:00,
2013-05-02 01:10:00,64.8,46.2,29.03,ESE,115,3.1,3.6,51,0.00,,---,0.00,VWS V14.01,2013-05-02 05:10:00,
2013-05-02 01:11:00,64.6,46.1,29.03,ESE,115,0.0,3.6,51,0.00,,---,0.00,VWS V14.01,2013-05-02 05:11:00,
2013-05-02 01:12:00,64.6,46.1,29.03,ESE,115,0.0,0.0,51,0.00,,---,0.00,VWS V14.01,2013-05-02 05:12:00,
2013-05-02 01:13:00,64.6,46.1,29.03,SE,137,3.6,4.9,51,0.00,,---,0.00,VWS V14.01,2013-05-02 05:13:00,
2013-05-02 01:14:00,64.6,46.1,29.03,East,82,0.0,4.0,51,0.00,,---,0.00,VWS V14.01,2013-05-02 05:14:00,
2013-05-02 01:15:00,64.6,46.1,29.03,SE,139,4.5,4.5,51,0.00,,---,0.00,VWS V14.01,2013-05-02 05:15:00,
2013-05-02 01:16:00,64.6,46.1,29.03,SE,135,4.5,5.8,51,0.00,,---,0.00,VWS V14.01,2013-05-02 05:16:00,
2013-05-02 01:17:00,64.6,46.1,29.03,SE,135,3.6,4.5,51,0.00,,---,0.00,VWS V14.01,2013-05-02 05:17:00,
2013-05-02 01:18:00,64.6,46.1,29.03,SE,143,3.1,5.8,51,0.00,,---,0.00,VWS V14.01,2013-05-02 05:18:00,
2013-05-02 01:19:00,64.6,46.1,29.03,SE,145,4.9,5.8,51,0.00,,---,0.00,VWS V14.01,2013-05-02 05:19:00,
2013-05-02 01:20:00,64.6,46.1,29.03,SE,141,3.6,5.8,51,0.00,,---,0.00,VWS V14.01,2013-05-02 05:20:00,
2013-05-02 01:21:00,64.6,46.1,29.03,SE,141,4.5,4.5,51,0.00,,---,0.00,VWS V14.01,2013-05-02 05:21:00,
2013-05-02 01:22:00,64.6,46.1,29.03,SE,137,0.0,5.4,51,0.00,,---,0.00,VWS V14.01,2013-05-02 05:22:00,
2013-05-02 01:23:00,64.6,46.1,29.03,SE,137,0.0,3.6,51,0.00,,---,0.00,VWS V14.01,2013-05-02 05:23:00,
2013-05-02 01:24:00,64.6,46.1,29.03,SE,139,0.0,4.0,51,0.00,,---,0.00,VWS V14.01,2013-05-02 05:24:00,
2013-05-02 01:25:00,64.4,45.9,29.03,SSE,149,2.7,4.9,51,0.00,,---,0.00,VWS V14.01,2013-05-02 05:25:00,
2013-05-02 01:26:00,64.4,45.9,29.03,SSE,148,4.5,5.4,51,0.00,,---,0.00,VWS V14.01,2013-05-02 05:26:00,
2013-05-02 01:27:00,64.4,45.9,29.03,SSE,150,3.1,5.4,51,0.00,,---,0.00,VWS V14.01,2013-05-02 05:27:00,
2013-05-02 01:28:00,64.4,45.9,29.03,SE,146,3.6,5.4,51,0.00,,---,0.00,VWS V14.01,2013-05-02 05:28:00,
2013-05-02 01:29:00,66.4,45.6,29.12,ESE,115,2.7,4.5,47,0.00,,---,0.00,VWS V14.01,2013-05-02 05:29:00,
2013-05-02 01:30:00,64.4,45.9,29.03,SE,146,4.0,5.4,51,0.00,,---,0.00,VWS V14.01,2013-05-02 05:30:00,
2013-05-02 01:31:00,64.4,45.9,29.03,SSE,149,4.0,4.5,51,0.00,,---,0.00,VWS V14.01,2013-05-02 05:31:00,
2013-05-02 01:32:00,64.4,45.9,29.03,SE,129,5.8,6.3,51,0.00,,---,0.00,VWS V14.01,2013-05-02 05:32:00,
2013-05-02 01:34:00,66.4,45.6,29.12,ESE,114,3.1,4.0,47,0.00,,---,0.00,VWS V14.01,2013-05-02 05:34:00,
2013-05-02 01:35:00,64.4,45.9,29.03,ESE,120,4.0,6.7,51,0.00,,---,0.00,VWS V14.01,2013-05-02 05:35:00,
2013-05-02 01:37:00,64.4,45.9,29.03,SE,145,4.5,4.9,51,0.00,,---,0.00,VWS V14.01,2013-05-02 05:37:00,
2013-05-02 01:38:00,64.4,45.9,29.03,SSE,153,5.4,5.8,51,0.00,,---,0.00,VWS V14.01,2013-05-02 05:38:00,
2013-05-02 01:39:00,64.4,45.9,29.03,SE,144,6.3,7.8,51,0.00,,---,0.00,VWS V14.01,2013-05-02 05:39:00,
2013-05-02 01:42:00,66.2,46.0,29.12,ESE,110,3.1,4.0,48,0.00,,---,0.00,VWS V14.01,2013-05-02 05:42:00,
2013-05-02 01:47:00,64.0,46.1,29.03,SE,140,3.6,6.7,52,0.00,,---,0.00,VWS V14.01,2013-05-02 05:47:00,
2013-05-02 01:48:00,63.9,45.9,29.03,SE,146,3.6,4.9,52,0.00,,---,0.00,VWS V14.01,2013-05-02 05:48:00,
2013-05-02 01:49:00,66.2,46.0,29.12,East,101,3.1,4.5,48,0.00,,---,0.00,VWS V14.01,2013-05-02 05:49:00,
2013-05-02 01:55:00,66.0,45.8,29.12,ESE,123,0.0,2.7,48,0.00,,---,0.00,VWS V14.01,2013-05-02 05:55:00,
2013-05-02 01:59:00,63.5,46.6,29.00,SE,144,0.0,3.1,54,0.00,,---,0.00,VWS V14.01,2013-05-02 05:59:00,
2013-05-02 02:00:00,66.0,45.8,29.12,ESE,113,0.0,3.1,48,0.00,,---,0.00,VWS V14.01,2013-05-02 06:00:00,
2013-05-02 02:05:00,65.8,46.2,29.12,ESE,115,3.1,3.6,49,0.00,,---,0.00,VWS V14.01,2013-05-02 06:05:00,
2013-05-02 02:10:00,65.8,46.2,29.12,ESE,121,0.0,3.6,49,0.00,,---,0.00,VWS V14.01,2013-05-02 06:10:00,
2013-05-02 02:11:00,63.1,46.7,29.00,SE,137,4.5,4.5,55,0.00,,---,0.00,VWS V14.01,2013-05-02 06:11:00,
2013-05-02 02:15:00,65.8,45.6,29.09,ESE,121,0.0,0.0,48,0.00,,---,0.00,VWS V14.01,2013-05-02 06:15:00,
2013-05-02 02:20:00,65.8,46.2,29.09,ESE,121,0.0,0.0,49,0.00,,---,0.00,VWS V14.01,2013-05-02 06:20:00,
2013-05-02 02:25:00,65.7,45.5,29.09,ESE,121,0.0,0.0,48,0.00,,---,0.00,VWS V14.01,2013-05-02 06:25:00,
2013-05-02 02:30:00,65.3,45.7,29.09,ESE,121,0.0,0.0,49,0.00,,---,0.00,VWS V14.01,2013-05-02 06:30:00,
2013-05-02 02:35:00,64.9,45.9,29.09,ESE,121,0.0,4.0,50,0.00,,---,0.00,VWS V14.01,2013-05-02 06:35:00,
2013-05-02 02:40:00,64.8,45.7,29.09,ESE,121,0.0,0.0,50,0.00,,---,0.00,VWS V14.01,2013-05-02 06:40:00,
2013-05-02 02:45:00,64.4,45.4,29.09,ESE,121,0.0,0.0,50,0.00,,---,0.00,VWS V14.01,2013-05-02 06:45:00,
2013-05-02 02:50:00,64.0,45.0,29.09,ESE,121,0.0,0.0,50,0.00,,---,0.00,VWS V14.01,2013-05-02 06:50:00,
2013-05-02 02:55:00,64.2,47.2,29.09,SE,125,0.0,0.0,54,0.00,,---,0.00,VWS V14.01,2013-05-02 06:55:00,
2013-05-02 03:00:00,63.9,46.9,29.09,ESE,110,0.0,0.0,54,0.00,,---,0.00,VWS V14.01,2013-05-02 07:00:00,
2013-05-02 03:05:00,63.5,46.6,29.09,ESE,110,0.0,0.0,54,0.00,,---,0.00,VWS V14.01,2013-05-02 07:05:00,
2013-05-02 03:10:00,63.1,46.7,29.09,ESE,109,0.0,0.0,55,0.00,,---,0.00,VWS V14.01,2013-05-02 07:10:00,
2013-05-02 03:15:00,62.8,46.4,29.09,ESE,110,0.0,0.0,55,0.00,,---,0.00,VWS V14.01,2013-05-02 07:15:00,
2013-05-02 03:20:00,62.4,46.5,29.09,ESE,109,0.0,0.0,56,0.00,,---,0.00,VWS V14.01,2013-05-02 07:20:00,
2013-05-02 03:26:00,62.6,49.0,29.09,SSE,147,3.1,3.1,61,0.00,,---,0.00,VWS V14.01,2013-05-02 07:26:00,
2013-05-02 03:31:00,63.0,49.8,29.09,SE,129,3.1,3.6,62,0.00,,---,0.00,VWS V14.01,2013-05-02 07:31:00,
2013-05-02 03:36:00,63.1,49.5,29.09,SE,127,0.0,3.1,61,0.00,,---,0.00,VWS V14.01,2013-05-02 07:36:00,
2013-05-02 03:41:00,63.3,49.2,29.09,SE,132,0.0,3.6,60,0.00,,---,0.00,VWS V14.01,2013-05-02 07:41:00,
2013-05-02 03:46:00,63.3,48.8,29.09,SE,128,3.1,4.0,59,0.00,,---,0.00,VWS V14.01,2013-05-02 07:46:00,
2013-05-02 03:51:00,63.3,48.3,29.09,SE,126,2.7,4.9,58,0.00,,---,0.00,VWS V14.01,2013-05-02 07:51:00,
2013-05-02 03:56:00,63.1,48.1,29.09,ESE,116,3.6,4.5,58,0.00,,---,0.00,VWS V14.01,2013-05-02 07:56:00,
2013-05-02 04:01:00,63.1,48.6,29.09,ESE,112,0.0,4.5,59,0.00,,---,0.00,VWS V14.01,2013-05-02 08:01:00,
2013-05-02 04:06:00,63.0,48.4,29.09,ESE,120,4.9,4.9,59,0.00,,---,0.00,VWS V14.01,2013-05-02 08:06:00,
2013-05-02 04:11:00,62.8,48.3,29.09,ESE,109,4.5,5.4,59,0.00,,---,0.00,VWS V14.01,2013-05-02 08:11:00,
2013-05-02 04:16:00,62.8,48.7,29.09,ESE,109,3.1,3.6,60,0.00,,---,0.00,VWS V14.01,2013-05-02 08:16:00,
2013-05-02 04:21:00,62.6,48.5,29.09,East,99,3.6,4.0,60,0.00,,---,0.00,VWS V14.01,2013-05-02 08:21:00,
2013-05-02 04:26:00,62.4,48.8,29.09,ESE,107,3.6,3.6,61,0.00,,---,0.00,VWS V14.01,2013-05-02 08:26:00,
2013-05-02 04:31:00,62.2,48.6,29.09,ESE,107,2.7,4.5,61,0.00,,---,0.00,VWS V14.01,2013-05-02 08:31:00,
2013-05-02 04:36:00,62.1,48.5,29.09,ESE,107,0.0,0.0,61,0.00,,---,0.00,VWS V14.01,2013-05-02 08:36:00,
2013-05-02 04:42:00,61.9,49.2,29.09,ESE,110,0.0,3.1,63,0.00,,---,0.00,VWS V14.01,2013-05-02 08:42:00,
2013-05-02 04:47:00,61.9,49.2,29.09,ESE,117,2.7,4.5,63,0.00,,---,0.00,VWS V14.01,2013-05-02 08:47:00,
2013-05-02 04:52:00,61.9,49.2,29.09,SE,131,4.0,4.5,63,0.00,,---,0.00,VWS V14.01,2013-05-02 08:52:00,
2013-05-02 04:57:00,62.2,49.5,29.09,SE,128,4.5,4.5,63,0.00,,---,0.00,VWS V14.01,2013-05-02 08:57:00,
2013-05-02 05:02:00,62.2,49.1,29.09,SE,129,0.0,3.1,62,0.00,,---,0.00,VWS V14.01,2013-05-02 09:02:00,
2013-05-02 05:07:00,62.1,48.9,29.09,SE,135,0.0,4.9,62,0.00,,---,0.00,VWS V14.01,2013-05-02 09:07:00,
2013-05-02 05:12:00,61.9,48.7,29.09,SE,141,0.0,3.6,62,0.00,,---,0.00,VWS V14.01,2013-05-02 09:12:00,
2013-05-02 05:17:00,61.9,48.7,29.09,SE,143,5.4,5.4,62,0.00,,---,0.00,VWS V14.01,2013-05-02 09:17:00,
2013-05-02 05:22:00,62.1,48.9,29.09,SE,132,3.1,4.5,62,0.00,,---,0.00,VWS V14.01,2013-05-02 09:22:00,
2013-05-02 05:27:00,61.9,48.3,29.09,SE,140,6.3,6.3,61,0.00,,---,0.00,VWS V14.01,2013-05-02 09:27:00,
2013-05-02 05:32:00,62.1,48.5,29.09,SSE,151,4.0,6.7,61,0.00,,---,0.00,VWS V14.01,2013-05-02 09:32:00,
2013-05-02 05:37:00,62.1,48.0,29.09,SE,146,5.8,6.3,60,0.00,,---,0.00,VWS V14.01,2013-05-02 09:37:00,
2013-05-02 05:42:00,61.9,47.9,29.09,SE,134,5.4,5.8,60,0.00,,---,0.00,VWS V14.01,2013-05-02 09:42:00,
2013-05-02 05:47:00,62.1,48.0,29.09,SSE,151,4.0,5.8,60,0.00,,---,0.00,VWS V14.01,2013-05-02 09:47:00,
2013-05-02 05:52:00,61.9,47.9,29.09,SSE,149,4.5,5.8,60,0.00,,---,0.00,VWS V14.01,2013-05-02 09:52:00,
2013-05-02 05:57:00,61.7,48.1,29.09,SSE,160,4.0,6.7,61,0.00,,---,0.00,VWS V14.01,2013-05-02 09:57:00,
2013-05-02 06:02:00,61.7,48.1,29.09,SSE,160,4.0,5.4,61,0.00,,---,0.00,VWS V14.01,2013-05-02 10:02:00,
2013-05-02 06:07:00,61.3,47.8,29.09,SSE,148,0.0,4.0,61,0.00,,---,0.00,VWS V14.01,2013-05-02 10:07:00,
2013-05-02 06:12:00,61.2,48.0,29.09,SE,140,3.6,3.6,62,0.00,,---,0.00,VWS V14.01,2013-05-02 10:12:00,
2013-05-02 06:17:00,61.2,48.5,29.09,SE,146,4.0,4.0,63,0.00,,---,0.00,VWS V14.01,2013-05-02 10:17:00,
2013-05-02 06:22:00,61.0,48.3,29.09,SE,139,3.1,4.9,63,0.00,,---,0.00,VWS V14.01,2013-05-02 10:22:00,
2013-05-02 06:27:00,61.0,47.9,29.09,SE,139,0.0,4.0,62,0.00,,---,0.00,VWS V14.01,2013-05-02 10:27:00,
2013-05-02 06:33:00,60.8,48.1,29.12,SE,136,0.0,0.0,63,0.00,,---,0.00,VWS V14.01,2013-05-02 10:33:00,
2013-05-02 06:38:00,60.8,48.1,29.12,SE,144,0.0,3.6,63,0.00,,---,0.00,VWS V14.01,2013-05-02 10:38:00,
2013-05-02 06:43:00,60.6,48.0,29.12,SE,132,3.6,4.0,63,0.00,,---,0.00,VWS V14.01,2013-05-02 10:43:00,
2013-05-02 06:48:00,60.6,48.0,29.12,ESE,122,0.0,4.0,63,0.00,,---,0.00,VWS V14.01,2013-05-02 10:48:00,
2013-05-02 06:53:00,60.6,48.0,29.12,SSW,211,3.1,4.0,63,0.00,,---,0.00,VWS V14.01,2013-05-02 10:53:00,
2013-05-02 06:58:00,60.6,48.0,29.12,South,169,0.0,3.1,63,0.00,,---,0.00,VWS V14.01,2013-05-02 10:58:00,
2013-05-02 07:03:00,60.8,47.7,29.12,SSE,152,4.9,4.9,62,0.00,,---,0.00,VWS V14.01,2013-05-02 11:03:00,
2013-05-02 07:08:00,61.0,47.5,29.12,SSE,150,4.0,4.9,61,0.00,,---,0.00,VWS V14.01,2013-05-02 11:08:00,
2013-05-02 07:13:00,61.3,47.3,29.12,SSE,155,2.7,4.9,60,0.00,,---,0.00,VWS V14.01,2013-05-02 11:13:00,
2013-05-02 07:18:00,61.5,46.6,29.12,SSW,192,4.0,5.4,58,0.00,,---,0.00,VWS V14.01,2013-05-02 11:18:00,
2013-05-02 07:23:00,61.9,45.5,29.12,SE,146,0.0,4.0,55,0.00,,---,0.00,VWS V14.01,2013-05-02 11:23:00,
2013-05-02 07:28:00,62.2,45.4,29.12,SE,126,4.0,5.8,54,0.00,,---,0.00,VWS V14.01,2013-05-02 11:28:00,
2013-05-02 07:33:00,62.6,45.2,29.12,SE,138,5.8,5.8,53,0.00,,---,0.00,VWS V14.01,2013-05-02 11:33:00,
2013-05-02 07:38:00,63.1,44.7,29.12,South,172,0.0,3.6,51,0.00,,---,0.00,VWS V14.01,2013-05-02 11:38:00,
2013-05-02 07:43:00,63.9,43.8,29.12,SE,145,4.9,5.4,48,0.00,,---,0.00,VWS V14.01,2013-05-02 11:43:00,
2013-05-02 07:48:00,65.1,43.8,29.12,SE,127,4.0,5.4,46,0.00,,---,0.00,VWS V14.01,2013-05-02 11:48:00,
2013-05-02 07:53:00,68.2,44.2,29.12,SW,214,0.0,5.4,42,0.00,,---,0.00,VWS V14.01,2013-05-02 11:53:00,
2013-05-02 07:58:00,70.9,41.1,29.12,WSW,258,0.0,5.4,34,0.00,,---,0.00,VWS V14.01,2013-05-02 11:58:00,
2013-05-02 08:04:00,70.3,39.9,29.12,NNW,341,3.1,3.6,33,0.00,,---,0.00,VWS V14.01,2013-05-02 12:04:00,
2013-05-02 08:09:00,70.3,39.1,29.12,SSE,147,0.0,6.3,32,0.00,,---,0.00,VWS V14.01,2013-05-02 12:09:00,
2013-05-02 08:14:00,70.9,39.6,29.12,SSW,198,5.8,5.8,32,0.00,,---,0.00,VWS V14.01,2013-05-02 12:14:00,
2013-05-02 08:19:00,73.2,40.8,29.12,SSE,158,0.0,7.4,31,0.00,,---,0.00,VWS V14.01,2013-05-02 12:19:00,
2013-05-02 08:24:00,73.9,37.9,29.12,SSE,147,7.4,7.4,27,0.00,,---,0.00,VWS V14.01,2013-05-02 12:24:00,
2013-05-02 08:30:00,71.4,36.7,29.12,SSW,211,2.7,5.4,28,0.00,,---,0.00,VWS V14.01,2013-05-02 12:30:00,
2013-05-02 08:35:00,70.2,38.1,29.12,SSW,197,3.1,4.5,31,0.00,,---,0.00,VWS V14.01,2013-05-02 12:35:00,
2013-05-02 08:40:00,69.4,38.3,29.12,WSW,239,4.0,5.4,32,0.00,,---,0.00,VWS V14.01,2013-05-02 12:40:00,
2013-05-02 08:45:00,69.1,38.8,29.15,WSW,238,3.6,5.8,33,0.00,,---,0.00,VWS V14.01,2013-05-02 12:45:00,
2013-05-02 08:50:00,69.1,38.8,29.15,South,188,3.1,7.4,33,0.00,,---,0.00,VWS V14.01,2013-05-02 12:50:00,
2013-05-02 08:55:00,69.3,39.0,29.15,South,172,3.1,6.3,33,0.00,,---,0.00,VWS V14.01,2013-05-02 12:55:00,
2013-05-02 09:00:00,70.0,40.3,29.15,SSE,149,0.0,5.8,34,0.00,,---,0.00,VWS V14.01,2013-05-02 13:00:00,
2013-05-02 09:05:00,70.2,39.0,29.15,South,188,2.7,7.4,32,0.00,,---,0.00,VWS V14.01,2013-05-02 13:05:00,
2013-05-02 09:10:00,70.7,39.4,29.15,SSW,202,5.4,7.4,32,0.00,,---,0.00,VWS V14.01,2013-05-02 13:10:00,
2013-05-02 09:15:00,70.7,38.6,29.15,SW,221,6.7,6.7,31,0.00,,---,0.00,VWS V14.01,2013-05-02 13:15:00,
2013-05-02 09:20:00,70.7,38.6,29.15,South,180,4.9,6.3,31,0.00,,---,0.00,VWS V14.01,2013-05-02 13:20:00,
2013-05-02 09:26:00,71.1,38.9,29.15,SSW,192,0.0,7.8,31,0.00,,---,0.00,VWS V14.01,2013-05-02 13:26:00,
2013-05-02 09:31:00,71.2,38.2,29.15,South,183,2.7,6.9,30,0.00,,---,0.00,VWS V14.01,2013-05-02 13:31:00,
2013-05-02 09:36:00,71.4,36.7,29.15,South,169,5.4,8.3,28,0.00,,---,0.00,VWS V14.01,2013-05-02 13:36:00,
2013-05-02 09:41:00,71.6,37.7,29.15,SSE,159,4.0,6.9,29,0.00,,---,0.00,VWS V14.01,2013-05-02 13:41:00,
2013-05-02 09:46:00,72.3,37.4,29.15,West,269,0.0,4.9,28,0.00,,---,0.00,VWS V14.01,2013-05-02 13:46:00,
2013-05-02 09:51:00,73.2,36.3,29.15,SE,133,3.1,7.8,26,0.00,,---,0.00,VWS V14.01,2013-05-02 13:51:00,
2013-05-02 09:56:00,73.6,35.6,29.15,SSW,204,0.0,5.4,25,0.00,,---,0.00,VWS V14.01,2013-05-02 13:56:00,
2013-05-02 10:01:00,74.1,36.1,29.15,SSE,152,4.5,6.3,25,0.00,,---,0.00,VWS V14.01,2013-05-02 14:01:00,
2013-05-02 10:06:00,74.1,34.0,29.15,SSW,193,3.1,7.4,23,0.00,,---,0.00,VWS V14.01,2013-05-02 14:06:00,
2013-05-02 10:11:00,74.5,35.4,29.15,SSW,197,5.8,6.9,24,0.00,,---,0.00,VWS V14.01,2013-05-02 14:11:00,
2013-05-02 10:16:00,75.0,34.7,29.15,SSE,159,5.4,6.7,23,0.00,,---,0.00,VWS V14.01,2013-05-02 14:16:00,
2013-05-02 10:21:00,75.6,34.1,29.15,SSW,201,4.5,8.7,22,0.00,,---,0.00,VWS V14.01,2013-05-02 14:21:00,
2013-05-02 10:26:00,76.5,34.8,29.15,SSW,193,4.5,4.5,22,0.00,,---,0.00,VWS V14.01,2013-05-02 14:26:00,
2013-05-02 10:32:00,77.0,34.1,29.15,SE,146,8.3,8.3,21,0.00,,---,0.00,VWS V14.01,2013-05-02 14:32:00,
2013-05-02 10:37:00,76.6,33.8,29.15,SSW,200,6.7,8.7,21,0.00,,---,0.00,VWS V14.01,2013-05-02 14:37:00,
2013-05-02 10:42:00,77.5,34.6,29.15,SE,138,8.3,8.7,21,0.00,,---,0.00,VWS V14.01,2013-05-02 14:42:00,
2013-05-02 10:47:00,77.4,34.4,29.15,ENE,76,6.9,6.9,21,0.00,,---,0.00,VWS V14.01,2013-05-02 14:47:00,
2013-05-02 10:52:00,77.5,34.6,29.15,WSW,239,5.4,8.7,21,0.00,,---,0.00,VWS V14.01,2013-05-02 14:52:00,
2013-05-02 10:57:00,77.9,34.9,29.15,SE,139,3.1,6.3,21,0.00,,---,0.00,VWS V14.01,2013-05-02 14:57:00,
2013-05-02 11:02:00,78.4,34.1,29.15,SSE,155,3.1,5.4,20,0.00,,---,0.00,VWS V14.01,2013-05-02 15:02:00,
2013-05-02 11:07:00,78.8,34.4,29.15,SSE,161,0.0,3.6,20,0.00,,---,0.00,VWS V14.01,2013-05-02 15:07:00,
2013-05-02 11:12:00,80.1,35.4,29.15,South,174,3.1,4.9,20,0.00,,---,0.00,VWS V14.01,2013-05-02 15:12:00,
2013-05-02 11:17:00,79.3,34.8,29.12,SE,138,2.7,6.3,20,0.00,,---,0.00,VWS V14.01,2013-05-02 15:17:00,
2013-05-02 11:22:00,79.0,34.5,29.12,SSE,150,4.5,6.3,20,0.00,,---,0.00,VWS V14.01,2013-05-02 15:22:00,
2013-05-02 11:27:00,79.0,34.5,29.12,SW,224,4.5,4.9,20,0.00,,---,0.00,VWS V14.01,2013-05-02 15:27:00,
2013-05-02 11:32:00,79.0,34.5,29.12,ESE,117,5.4,6.9,20,0.00,,---,0.00,VWS V14.01,2013-05-02 15:32:00,
2013-05-02 11:37:00,79.2,34.7,29.12,East,88,4.9,6.9,20,0.00,,---,0.00,VWS V14.01,2013-05-02 15:37:00,
2013-05-02 11:42:00,81.1,36.3,29.12,SSE,162,4.5,6.3,20,0.00,,---,0.00,VWS V14.01,2013-05-02 15:42:00,
2013-05-02 11:47:00,80.2,34.3,29.12,ESE,108,4.5,7.8,19,0.00,,---,0.00,VWS V14.01,2013-05-02 15:47:00,
2013-05-02 11:52:00,81.1,35.0,29.12,SSE,151,6.3,7.4,19,0.00,,---,0.00,VWS V14.01,2013-05-02 15:52:00,
2013-05-02 11:57:00,81.1,32.2,29.12,South,174,5.4,7.4,17,0.00,,---,0.00,VWS V14.01,2013-05-02 15:57:00,
2013-05-02 12:02:00,81.0,32.1,29.12,East,90,5.8,7.8,17,0.00,,---,0.00,VWS V14.01,2013-05-02 16:02:00,
2013-05-02 12:07:00,81.5,35.3,29.12,NE,48,2.7,5.8,19,0.00,,---,0.00,VWS V14.01,2013-05-02 16:07:00,
2013-05-02 12:12:00,83.1,32.3,29.12,SSE,158,2.7,6.3,16,0.00,,---,0.00,VWS V14.01,2013-05-02 16:12:00,
2013-05-02 12:17:00,82.2,35.9,29.12,South,176,4.5,7.4,19,0.00,,---,0.00,VWS V14.01,2013-05-02 16:17:00,
2013-05-02 12:22:00,83.3,32.5,29.12,SSE,162,5.8,6.7,16,0.00,,---,0.00,VWS V14.01,2013-05-02 16:22:00,
2013-05-02 12:27:00,82.8,32.0,29.12,SW,233,5.8,8.3,16,0.00,,---,0.00,VWS V14.01,2013-05-02 16:27:00,
2013-05-02 12:32:00,81.9,31.3,29.12,East,101,9.2,9.2,16,0.00,,---,0.00,VWS V14.01,2013-05-02 16:32:00,
2013-05-02 12:37:00,79.3,30.8,29.12,SE,133,8.3,8.3,17,0.00,,---,0.00,VWS V14.01,2013-05-02 16:37:00,
2013-05-02 12:42:00,79.7,35.1,29.12,SSW,206,4.0,6.9,20,0.00,,---,0.00,VWS V14.01,2013-05-02 16:42:00,
2013-05-02 12:47:00,81.7,31.2,29.12,East,94,0.0,5.4,16,0.00,,---,0.00,VWS V14.01,2013-05-02 16:47:00,
2013-05-02 12:52:00,82.2,31.6,29.12,East,99,4.9,9.2,16,0.00,,---,0.00,VWS V14.01,2013-05-02 16:52:00,
2013-05-02 12:57:00,80.6,31.8,29.12,SE,141,7.4,8.3,17,0.00,,---,0.00,VWS V14.01,2013-05-02 16:57:00,
2013-05-02 13:02:00,81.5,35.3,29.12,SSW,207,6.9,6.9,19,0.00,,---,0.00,VWS V14.01,2013-05-02 17:02:00,
2013-05-02 13:07:00,82.6,31.9,29.12,South,177,8.3,8.3,16,0.00,,---,0.00,VWS V14.01,2013-05-02 17:07:00,
2013-05-02 13:12:00,81.5,32.5,29.12,SSE,158,7.4,9.2,17,0.00,,---,0.00,VWS V14.01,2013-05-02 17:12:00,
2013-05-02 13:17:00,80.2,31.5,29.12,SSE,148,7.8,10.5,17,0.00,,---,0.00,VWS V14.01,2013-05-02 17:17:00,
2013-05-02 13:22:00,80.6,31.8,29.12,ESE,114,4.5,7.4,17,0.00,,---,0.00,VWS V14.01,2013-05-02 17:22:00,
2013-05-02 13:27:00,82.2,31.6,29.12,SE,143,6.9,7.4,16,0.00,,---,0.00,VWS V14.01,2013-05-02 17:27:00,
2013-05-02 13:32:00,81.1,32.2,29.12,SSE,154,4.9,5.8,17,0.00,,---,0.00,VWS V14.01,2013-05-02 17:32:00,
2013-05-02 13:37:00,81.5,32.5,29.12,SSE,159,4.0,8.7,17,0.00,,---,0.00,VWS V14.01,2013-05-02 17:37:00,
2013-05-02 13:42:00,82.2,31.6,29.12,SE,141,6.7,11.0,16,0.00,,---,0.00,VWS V14.01,2013-05-02 17:42:00,
2013-05-02 13:47:00,82.0,31.5,29.09,East,80,4.0,4.9,16,0.00,,---,0.00,VWS V14.01,2013-05-02 17:47:00,
2013-05-02 13:52:00,81.5,31.0,29.09,SSE,148,6.3,10.1,16,0.00,,---,0.00,VWS V14.01,2013-05-02 17:52:00,
2013-05-02 13:57:00,82.9,32.2,29.09,SSE,164,6.3,9.2,16,0.00,,---,0.00,VWS V14.01,2013-05-02 17:57:00,
2013-05-02 14:02:00,81.7,31.2,29.09,ESE,121,4.9,8.7,16,0.00,,---,0.00,VWS V14.01,2013-05-02 18:02:00,
2013-05-02 14:07:00,84.2,33.2,29.09,East,101,7.4,10.5,16,0.00,,---,0.00,VWS V14.01,2013-05-02 18:07:00,
2013-05-02 14:12:00,82.2,31.6,29.09,SE,126,4.9,6.9,16,0.00,,---,0.00,VWS V14.01,2013-05-02 18:12:00,
2013-05-02 14:17:00,82.0,31.5,29.09,South,182,4.0,10.1,16,0.00,,---,0.00,VWS V14.01,2013-05-02 18:17:00,
2013-05-02 14:22:00,81.5,31.0,29.09,SSE,157,4.5,7.4,16,0.00,,---,0.00,VWS V14.01,2013-05-02 18:22:00,
2013-05-02 14:27:00,81.3,32.4,29.09,SW,227,5.8,7.8,17,0.00,,---,0.00,VWS V14.01,2013-05-02 18:27:00,
2013-05-02 14:32:00,83.1,32.3,29.09,SE,128,7.4,7.4,16,0.00,,---,0.00,VWS V14.01,2013-05-02 18:32:00,
2013-05-02 14:37:00,82.4,31.8,29.09,SE,136,9.2,11.2,16,0.00,,---,0.00,VWS V14.01,2013-05-02 18:37:00,
2013-05-02 14:43:00,82.6,31.9,29.09,SSE,147,4.9,6.7,16,0.00,,---,0.00,VWS V14.01,2013-05-02 18:43:00,
2013-05-02 14:48:00,83.1,32.3,29.09,SSW,200,5.8,7.4,16,0.00,,---,0.00,VWS V14.01,2013-05-02 18:48:00,
2013-05-02 14:53:00,81.0,32.1,29.09,East,99,8.7,11.0,17,0.00,,---,0.00,VWS V14.01,2013-05-02 18:53:00,
2013-05-02 14:58:00,79.2,30.6,29.09,ESE,119,6.3,10.5,17,0.00,,---,0.00,VWS V14.01,2013-05-02 18:58:00,
2013-05-02 15:03:00,79.9,31.2,29.09,SE,145,5.4,8.3,17,0.00,,---,0.00,VWS V14.01,2013-05-02 19:03:00,
2013-05-02 15:08:00,79.3,30.8,29.09,SSE,149,6.9,9.6,17,0.00,,---,0.00,VWS V14.01,2013-05-02 19:08:00,
2013-05-02 15:13:00,80.2,31.5,29.09,ESE,116,8.7,10.5,17,0.00,,---,0.00,VWS V14.01,2013-05-02 19:13:00,
2013-05-02 15:18:00,79.9,31.2,29.09,SSE,148,0.0,7.4,17,0.00,,---,0.00,VWS V14.01,2013-05-02 19:18:00,
2013-05-02 15:23:00,80.1,31.4,29.09,SSE,156,6.9,11.0,17,0.00,,---,0.00,VWS V14.01,2013-05-02 19:23:00,
2013-05-02 15:28:00,79.3,30.8,29.09,ESE,119,11.6,11.6,17,0.00,,---,0.00,VWS V14.01,2013-05-02 19:28:00,
2013-05-02 15:33:00,79.0,30.5,29.09,SSE,158,6.7,11.0,17,0.00,,---,0.00,VWS V14.01,2013-05-02 19:33:00,
2013-05-02 15:38:00,78.8,30.4,29.09,SSE,165,9.2,10.1,17,0.00,,---,0.00,VWS V14.01,2013-05-02 19:38:00,
2013-05-02 15:43:00,79.3,34.8,29.09,SE,140,6.3,7.8,20,0.00,,---,0.00,VWS V14.01,2013-05-02 19:43:00,
2013-05-02 15:48:00,79.0,30.5,29.09,ESE,108,8.3,9.6,17,0.00,,---,0.00,VWS V14.01,2013-05-02 19:48:00,
2013-05-02 15:53:00,78.4,30.0,29.09,SSE,148,9.6,10.1,17,0.00,,---,0.00,VWS V14.01,2013-05-02 19:53:00,
2013-05-02 15:59:00,77.9,33.6,29.09,SE,135,5.4,11.0,20,0.00,,---,0.00,VWS V14.01,2013-05-02 19:59:00,
2013-05-02 16:04:00,77.0,32.9,29.09,ESE,111,8.7,12.1,20,0.00,,---,0.00,VWS V14.01,2013-05-02 20:04:00,
2013-05-02 16:09:00,76.3,32.3,29.09,SSE,158,4.9,9.6,20,0.00,,---,0.00,VWS V14.01,2013-05-02 20:09:00,
2013-05-02 16:14:00,77.7,33.5,29.09,SE,133,6.9,11.6,20,0.00,,---,0.00,VWS V14.01,2013-05-02 20:14:00,
2013-05-02 16:19:00,77.7,30.9,29.09,SE,143,6.7,9.2,18,0.00,,---,0.00,VWS V14.01,2013-05-02 20:19:00,
2013-05-02 16:24:00,78.3,29.9,29.09,ESE,121,11.6,11.6,17,0.00,,---,0.00,VWS V14.01,2013-05-02 20:24:00,
2013-05-02 16:29:00,77.9,31.0,29.06,SSE,155,4.5,8.7,18,0.00,,---,0.00,VWS V14.01,2013-05-02 20:29:00,
2013-05-02 16:34:00,79.7,31.1,29.06,SE,141,5.8,8.7,17,0.00,,---,0.00,VWS V14.01,2013-05-02 20:34:00,
2013-05-02 16:39:00,79.5,30.9,29.06,SE,133,6.7,9.2,17,0.00,,---,0.00,VWS V14.01,2013-05-02 20:39:00,
2013-05-02 16:44:00,79.0,30.5,29.06,SSE,151,4.0,6.9,17,0.00,,---,0.00,VWS V14.01,2013-05-02 20:44:00,
2013-05-02 16:49:00,79.5,30.9,29.06,East,101,6.7,7.4,17,0.00,,---,0.00,VWS V14.01,2013-05-02 20:49:00,
2013-05-02 16:54:00,79.5,30.9,29.06,SE,138,8.3,10.1,17,0.00,,---,0.00,VWS V14.01,2013-05-02 20:54:00,
2013-05-02 16:59:00,78.1,29.8,29.06,ENE,67,6.9,9.6,17,0.00,,---,0.00,VWS V14.01,2013-05-02 20:59:00,
2013-05-02 17:04:00,77.4,30.6,29.06,ESE,111,6.7,9.6,18,0.00,,---,0.00,VWS V14.01,2013-05-02 21:04:00,
2013-05-02 17:09:00,77.4,33.2,29.06,SE,141,6.9,7.4,20,0.00,,---,0.00,VWS V14.01,2013-05-02 21:09:00,
2013-05-02 17:14:00,76.8,32.8,29.06,SSE,160,5.4,9.2,20,0.00,,---,0.00,VWS V14.01,2013-05-02 21:14:00,
2013-05-02 17:19:00,75.4,31.6,29.06,East,98,8.3,12.1,20,0.00,,---,0.00,VWS V14.01,2013-05-02 21:19:00,
2013-05-02 17:24:00,75.6,32.9,29.06,SE,136,4.5,6.7,21,0.00,,---,0.00,VWS V14.01,2013-05-02 21:24:00,
2013-05-02 17:29:00,75.7,33.1,29.06,ESE,107,6.9,11.0,21,0.00,,---,0.00,VWS V14.01,2013-05-02 21:29:00,
2013-05-02 17:34:00,75.0,32.5,29.06,ESE,110,8.7,12.1,21,0.00,,---,0.00,VWS V14.01,2013-05-02 21:34:00,
2013-05-02 17:39:00,75.4,32.8,29.06,ESE,113,7.8,8.7,21,0.00,,---,0.00,VWS V14.01,2013-05-02 21:39:00,
2013-05-02 17:44:00,75.2,32.6,29.06,SSE,155,3.6,6.3,21,0.00,,---,0.00,VWS V14.01,2013-05-02 21:44:00,
2013-05-02 17:49:00,75.9,33.2,29.06,SE,135,4.0,4.9,21,0.00,,---,0.00,VWS V14.01,2013-05-02 21:49:00,
2013-05-02 17:54:00,76.3,32.3,29.06,East,90,5.4,6.9,20,0.00,,---,0.00,VWS V14.01,2013-05-02 21:54:00,
2013-05-02 17:59:00,75.7,33.1,29.06,SE,127,3.6,5.8,21,0.00,,---,0.00,VWS V14.01,2013-05-02 21:59:00,
2013-05-02 18:04:00,75.6,32.9,29.06,ESE,106,6.3,6.9,21,0.00,,---,0.00,VWS V14.01,2013-05-02 22:04:00,
2013-05-02 18:09:00,75.9,33.2,29.06,ESE,113,4.5,6.9,21,0.00,,---,0.00,VWS V14.01,2013-05-02 22:09:00,
2013-05-02 18:14:00,75.7,31.9,29.03,SE,141,5.4,7.4,20,0.00,,---,0.00,VWS V14.01,2013-05-02 22:14:00,
2013-05-02 18:19:00,76.3,33.5,29.03,SE,132,6.7,6.7,21,0.00,,---,0.00,VWS V14.01,2013-05-02 22:19:00,
2013-05-02 18:24:00,76.3,32.3,29.03,SE,133,8.3,8.3,20,0.00,,---,0.00,VWS V14.01,2013-05-02 22:24:00,
2013-05-02 18:29:00,76.5,32.5,29.03,SE,128,5.4,5.8,20,0.00,,---,0.00,VWS V14.01,2013-05-02 22:29:00,
2013-05-02 18:34:00,75.6,31.7,29.03,SSW,195,4.9,9.6,20,0.00,,---,0.00,VWS V14.01,2013-05-02 22:34:00,
2013-05-02 18:39:00,74.8,32.3,29.03,SE,135,4.0,7.8,21,0.00,,---,0.00,VWS V14.01,2013-05-02 22:39:00,
2013-05-02 18:44:00,74.8,32.3,29.03,SSE,149,4.9,7.4,21,0.00,,---,0.00,VWS V14.01,2013-05-02 22:44:00,
2013-05-02 18:49:00,74.8,31.1,29.03,SSE,148,8.3,8.7,20,0.00,,---,0.00,VWS V14.01,2013-05-02 22:49:00,
2013-05-02 18:54:00,75.0,31.3,29.03,SE,141,4.0,7.4,20,0.00,,---,0.00,VWS V14.01,2013-05-02 22:54:00,
2013-05-02 18:59:00,75.7,31.9,29.03,ESE,117,0.0,6.7,20,0.00,,---,0.00,VWS V14.01,2013-05-02 22:59:00,
2013-05-02 19:04:00,75.9,32.0,29.03,SSE,159,4.5,10.5,20,0.00,,---,0.00,VWS V14.01,2013-05-02 23:04:00,
2013-05-02 19:09:00,75.6,31.7,29.03,ESE,105,3.6,6.7,20,0.00,,---,0.00,VWS V14.01,2013-05-02 23:09:00,
2013-05-02 19:14:00,74.8,32.3,29.03,SE,140,5.8,7.4,21,0.00,,---,0.00,VWS V14.01,2013-05-02 23:14:00,
2013-05-02 19:19:00,75.2,32.6,29.03,SE,127,3.1,5.8,21,0.00,,---,0.00,VWS V14.01,2013-05-02 23:19:00,
2013-05-02 19:24:00,76.1,33.4,29.03,SE,145,4.0,4.0,21,0.00,,---,0.00,VWS V14.01,2013-05-02 23:24:00,
2013-05-02 19:29:00,74.7,32.2,29.03,SSE,165,3.1,7.4,21,0.00,,---,0.00,VWS V14.01,2013-05-02 23:29:00,
2013-05-02 19:35:00,74.7,32.2,29.03,SE,128,6.7,7.4,21,0.00,,---,0.00,VWS V14.01,2013-05-02 23:35:00,
2013-05-02 19:40:00,75.7,33.1,29.03,South,186,7.4,7.4,21,0.00,,---,0.00,VWS V14.01,2013-05-02 23:40:00,
2013-05-02 19:45:00,75.6,32.9,29.03,SE,140,6.7,8.3,21,0.00,,---,0.00,VWS V14.01,2013-05-02 23:45:00,
2013-05-02 19:50:00,74.7,32.2,29.03,SE,146,7.4,8.3,21,0.00,,---,0.00,VWS V14.01,2013-05-02 23:50:00,
2013-05-02 19:55:00,73.8,32.6,29.03,SE,137,6.3,6.9,22,0.00,,---,0.00,VWS V14.01,2013-05-02 23:55:00,
2013-05-02 20:00:00,73.0,33.1,29.03,SE,137,4.0,4.9,23,0.00,,---,0.00,VWS V14.01,2013-05-03 00:00:00,
2013-05-02 20:05:00,72.1,33.4,29.03,SSE,154,6.3,10.5,24,0.00,,---,0.00,VWS V14.01,2013-05-03 00:05:00,
2013-05-02 20:10:00,71.8,35.1,29.03,SSE,163,5.4,5.4,26,0.00,,---,0.00,VWS V14.01,2013-05-03 00:10:00,
2013-05-02 20:15:00,71.4,35.7,29.03,ESE,104,3.1,6.3,27,0.00,,---,0.00,VWS V14.01,2013-05-03 00:15:00,
2013-05-02 20:20:00,71.1,36.3,29.03,SSE,160,2.7,4.9,28,0.00,,---,0.00,VWS V14.01,2013-05-03 00:20:00,
2013-05-02 20:25:00,70.7,36.9,29.03,SE,144,4.9,6.3,29,0.00,,---,0.00,VWS V14.01,2013-05-03 00:25:00,
2013-05-02 20:30:00,70.5,39.3,29.03,SE,131,0.0,4.0,32,0.00,,---,0.00,VWS V14.01,2013-05-03 00:30:00,
2013-05-02 20:35:00,70.2,39.0,29.03,ESE,107,2.7,5.8,32,0.00,,---,0.00,VWS V14.01,2013-05-03 00:35:00,
2013-05-02 20:40:00,69.8,39.4,29.03,SE,140,0.0,3.6,33,0.00,,---,0.00,VWS V14.01,2013-05-03 00:40:00,
2013-05-02 20:45:00,69.6,39.3,29.03,SE,140,0.0,4.0,33,0.00,,---,0.00,VWS V14.01,2013-05-03 00:45:00,
2013-05-02 20:50:00,69.3,39.7,29.03,SE,139,0.0,3.6,34,0.00,,---,0.00,VWS V14.01,2013-05-03 00:50:00,
2013-05-02 20:55:00,69.1,39.6,29.03,East,101,0.0,3.6,34,0.00,,---,0.00,VWS V14.01,2013-05-03 00:55:00,
2013-05-02 21:00:00,68.9,40.2,29.03,SE,126,0.0,4.9,35,0.00,,---,0.00,VWS V14.01,2013-05-03 01:00:00,
2013-05-02 21:05:00,68.7,40.7,29.03,SE,127,2.7,4.5,36,0.00,,---,0.00,VWS V14.01,2013-05-03 01:05:00,
2013-05-02 21:10:00,68.5,40.5,29.03,ESE,123,0.0,0.0,36,0.00,,---,0.00,VWS V14.01,2013-05-03 01:10:00,
2013-05-02 21:15:00,68.5,41.3,29.03,ESE,123,0.0,0.0,37,0.00,,---,0.00,VWS V14.01,2013-05-03 01:15:00,
2013-05-02 21:20:00,68.4,41.1,29.03,ESE,123,2.7,4.5,37,0.00,,---,0.00,VWS V14.01,2013-05-03 01:20:00,
2013-05-02 21:25:00,68.2,41.6,29.03,ESE,119,3.1,5.4,38,0.00,,---,0.00,VWS V14.01,2013-05-03 01:25:00,
2013-05-02 21:30:00,68.0,42.1,29.03,ESE,119,2.7,2.7,39,0.00,,---,0.00,VWS V14.01,2013-05-03 01:30:00,
2013-05-02 21:35:00,68.0,42.1,29.03,SSE,153,3.1,5.8,39,0.00,,---,0.00,VWS V14.01,2013-05-03 01:35:00,
2013-05-02 21:41:00,68.0,42.1,29.03,ESE,123,4.9,5.4,39,0.00,,---,0.00,VWS V14.01,2013-05-03 01:41:00,
2013-05-02 21:46:00,67.8,42.0,29.03,ESE,109,3.1,5.4,39,0.00,,---,0.00,VWS V14.01,2013-05-03 01:46:00,
2013-05-02 21:51:00,67.8,42.0,29.03,SE,134,5.4,5.4,39,0.00,,---,0.00,VWS V14.01,2013-05-03 01:51:00,
2013-05-02 21:56:00,67.6,42.5,29.03,SSE,149,3.1,6.3,40,0.00,,---,0.00,VWS V14.01,2013-05-03 01:56:00,
2013-05-02 22:02:00,67.6,43.1,29.03,ESE,121,4.0,4.0,41,0.00,,---,0.00,VWS V14.01,2013-05-03 02:02:00,
2013-05-02 22:07:00,67.5,43.6,29.03,SSE,168,4.5,6.7,42,0.00,,---,0.00,VWS V14.01,2013-05-03 02:07:00,
2013-05-02 22:12:00,67.3,43.4,29.03,SE,130,0.0,0.0,42,0.00,,---,0.00,VWS V14.01,2013-05-03 02:12:00,
2013-05-02 22:17:00,67.1,43.3,29.03,SE,128,0.0,4.0,42,0.00,,---,0.00,VWS V14.01,2013-05-03 02:17:00,
2013-05-02 22:22:00,66.9,43.7,29.03,SE,128,0.0,0.0,43,0.00,,---,0.00,VWS V14.01,2013-05-03 02:22:00,
2013-05-02 22:27:00,66.9,44.3,29.03,SE,133,3.1,5.8,44,0.00,,---,0.00,VWS V14.01,2013-05-03 02:27:00,
2013-05-02 22:32:00,66.9,44.3,29.03,SE,130,3.1,5.4,44,0.00,,---,0.00,VWS V14.01,2013-05-03 02:32:00,
2013-05-02 22:37:00,66.7,44.2,29.03,SE,129,3.1,3.6,44,0.00,,---,0.00,VWS V14.01,2013-05-03 02:37:00,
2013-05-02 22:42:00,66.7,44.2,29.03,SE,129,0.0,0.0,44,0.00,,---,0.00,VWS V14.01,2013-05-03 02:42:00,
2013-05-02 22:47:00,66.6,44.0,29.03,SE,129,0.0,0.0,44,0.00,,---,0.00,VWS V14.01,2013-05-03 02:47:00,
2013-05-02 22:52:00,66.4,44.4,29.03,SE,129,0.0,0.0,45,0.00,,---,0.00,VWS V14.01,2013-05-03 02:52:00,
2013-05-02 22:57:00,66.2,44.2,29.03,SE,129,0.0,2.7,45,0.00,,---,0.00,VWS V14.01,2013-05-03 02:57:00,
2013-05-02 23:02:00,66.2,44.2,29.03,SE,128,0.0,3.6,45,0.00,,---,0.00,VWS V14.01,2013-05-03 03:02:00,
2013-05-02 23:07:00,66.0,44.1,29.03,SSE,162,0.0,0.0,45,0.00,,---,0.00,VWS V14.01,2013-05-03 03:07:00,
2013-05-02 23:12:00,66.0,44.1,29.03,SE,124,0.0,3.1,45,0.00,,---,0.00,VWS V14.01,2013-05-03 03:12:00,
2013-05-02 23:18:00,65.8,43.9,29.03,SE,125,4.0,4.0,45,0.00,,---,0.00,VWS V14.01,2013-05-03 03:18:00,
2013-05-02 23:23:00,66.0,44.1,29.03,ESE,114,3.6,4.9,45,0.00,,---,0.00,VWS V14.01,2013-05-03 03:23:00,
2013-05-02 23:28:00,66.0,44.1,29.03,SE,138,3.6,5.4,45,0.00,,---,0.00,VWS V14.01,2013-05-03 03:28:00,
2013-05-02 23:33:00,66.2,44.2,29.03,SE,138,0.0,0.0,45,0.00,,---,0.00,VWS V14.01,2013-05-03 03:33:00,
2013-05-02 23:38:00,66.0,44.1,29.03,SE,138,2.7,4.5,45,0.00,,---,0.00,VWS V14.01,2013-05-03 03:38:00,
2013-05-02 23:43:00,66.0,44.1,29.03,SE,138,0.0,3.1,45,0.00,,---,0.00,VWS V14.01,2013-05-03 03:43:00,
2013-05-02 23:48:00,65.8,43.9,29.03,SE,138,0.0,0.0,45,0.00,,---,0.00,VWS V14.01,2013-05-03 03:48:00,
2013-05-02 23:53:00,65.7,44.3,29.03,SE,138,0.0,0.0,46,0.00,,---,0.00,VWS V14.01,2013-05-03 03:53:00,
2013-05-02 23:58:00,65.5,44.2,29.03,SE,135,4.0,4.9,46,0.00,,---,0.00,VWS V14.01,2013-05-03 03:58:00,
2013-05-02 23:59:00,64.6,20.1,28.94,ESE,114,4.9,7.4,18,0.00,,---,0.00,VWS V14.01,2013-05-03 03:59:00,